Time,TemperatureF,DewpointF,PressureIn,WindDirection,WindDirectionDegrees,WindSpeedMPH,WindSpeedGustMPH,Humidity,HourlyPrecipIn,Conditions,Clouds,dailyrainin,SolarRadiationWatts/m^2,SoftwareType,DateUTC
2013-01-02 00:12:00,51.0,-99.9,-100.00,East,85,3.0,13.0,-999,0.00,,,-99.99,0.000000,,2013-01-02 10:12:00,
2013-01-02 00:22:00,51.0,-99.9,-100.00,East,85,3.0,13.0,-999,0.00,,,-99.99,0.000000,,2013-01-02 10:22:00,
2013-01-02 00:33:00,51.0,-99.9,-100.00,East,85,3.0,13.0,-999,0.00,,,-99.99,0.000000,,2013-01-02 10:33:00,
2013-01-02 00:43:00,51.0,-99.9,-100.00,East,85,3.0,13.0,-999,0.00,,,-99.99,0.000000,,2013-01-02 10:43:00,
2013-01-02 00:53:00,51.0,-99.9,-100.00,East,85,3.0,13.0,-999,0.00,,,-99.99,0.000000,,2013-01-02 10:53:00,
2013-01-02 01:22:00,46.0,-99.9,-100.00,SE,132,5.0,11.0,-999,0.00,,,0.00,0.000000,,2013-01-02 11:22:00,
2013-01-02 01:33:00,46.0,-99.9,-100.00,SE,132,5.0,11.0,-999,0.00,,,0.00,0.000000,,2013-01-02 11:33:00,
2013-01-02 01:43:00,46.0,-99.9,-100.00,SE,132,5.0,11.0,-999,0.00,,,0.00,0.000000,,2013-01-02 11:43:00,
2013-01-02 01:53:00,46.0,-99.9,-100.00,SE,132,5.0,11.0,-999,0.00,,,0.00,0.000000,,2013-01-02 11:53:00,
2013-01-02 02:22:00,45.0,-99.9,-100.00,SSE,151,4.0,9.0,-999,0.00,,,0.00,0.000000,,2013-01-02 12:22:00,
2013-01-02 02:33:00,45.0,-99.9,-100.00,SSE,151,4.0,9.0,-999,0.00,,,0.00,0.000000,,2013-01-02 12:33:00,
2013-01-02 02:43:00,45.0,-99.9,-100.00,SSE,151,4.0,9.0,-999,0.00,,,0.00,0.000000,,2013-01-02 12:43:00,
2013-01-02 02:53:00,45.0,-99.9,-100.00,SSE,151,4.0,9.0,-999,0.00,,,0.00,0.000000,,2013-01-02 12:53:00,
2013-01-02 03:22:00,49.0,-99.9,-100.00,SSW,201,8.0,12.0,-999,0.00,,,0.00,0.000000,,2013-01-02 13:22:00,
2013-01-02 03:33:00,49.0,-99.9,-100.00,SSW,201,8.0,12.0,-999,0.00,,,0.00,0.000000,,2013-01-02 13:33:00,
2013-01-02 03:43:00,49.0,-99.9,-100.00,SSW,201,8.0,12.0,-999,0.00,,,0.00,0.000000,,2013-01-02 13:43:00,
2013-01-02 03:53:00,49.0,-99.9,-100.00,SSW,201,8.0,12.0,-999,0.00,,,0.00,0.000000,,2013-01-02 13:53:00,
2013-01-02 04:23:00,45.0,-99.9,-100.00,ESE,114,4.0,14.0,-999,0.00,,,0.00,0.000000,,2013-01-02 14:23:00,
2013-01-02 04:33:00,45.0,-99.9,-100.00,ESE,114,4.0,14.0,-999,0.00,,,0.00,0.000000,,2013-01-02 14:33:00,
2013-01-02 04:43:00,45.0,-99.9,-100.00,ESE,114,4.0,14.0,-999,0.00,,,0.00,0.000000,,2013-01-02 14:43:00,
2013-01-02 04:53:00,45.0,-99.9,-100.00,ESE,114,4.0,14.0,-999,0.00,,,0.00,0.000000,,2013-01-02 14:53:00,
2013-01-02 05:22:00,43.0,43.0,-100.00,SE,132,4.0,8.0,99,0.00,,,0.00,,,2013-01-02 15:22:00,
2013-01-02 05:33:00,43.0,43.0,-100.00,SE,132,4.0,8.0,99,0.00,,,0.00,,,2013-01-02 15:33:00,
2013-01-02 05:42:00,43.0,43.0,-100.00,SE,132,4.0,8.0,99,0.00,,,0.00,,,2013-01-02 15:42:00,
2013-01-02 05:52:00,43.0,43.0,-100.00,SE,132,4.0,8.0,99,0.00,,,0.00,,,2013-01-02 15:52:00,
2013-01-02 06:22:00,41.0,-99.9,-100.00,ESE,116,4.0,7.0,-999,0.00,,,-99.99,0.000000,,2013-01-02 16:22:00,
2013-01-02 06:33:00,41.0,-99.9,-100.00,ESE,116,4.0,7.0,-999,0.00,,,-99.99,0.000000,,2013-01-02 16:33:00,
2013-01-02 06:43:00,41.0,-99.9,-100.00,ESE,116,4.0,7.0,-999,0.00,,,-99.99,0.000000,,2013-01-02 16:43:00,
2013-01-02 06:54:00,41.0,-99.9,-100.00,ESE,116,4.0,7.0,-999,0.00,,,-99.99,0.000000,,2013-01-02 16:54:00,
2013-01-02 08:23:00,50.0,-99.9,-100.00,SSE,164,5.0,8.0,-999,-99.99,,,0.00,,,2013-01-02 18:23:00,
2013-01-02 08:33:00,50.0,-99.9,-100.00,SSE,164,5.0,8.0,-999,-99.99,,,0.00,,,2013-01-02 18:33:00,
2013-01-02 08:43:00,50.0,-99.9,-100.00,SSE,164,5.0,8.0,-999,-99.99,,,0.00,,,2013-01-02 18:43:00,
2013-01-02 08:54:00,50.0,-99.9,-100.00,SSE,164,5.0,8.0,-999,-99.99,,,0.00,,,2013-01-02 18:54:00,
2013-01-02 09:23:00,62.0,-99.9,-100.00,WSW,239,2.0,8.0,-999,0.00,,,0.00,272.000000,,2013-01-02 19:23:00,
2013-01-02 09:33:00,62.0,-99.9,-100.00,WSW,239,2.0,8.0,-999,0.00,,,0.00,272.000000,,2013-01-02 19:33:00,
2013-01-02 09:43:00,62.0,-99.9,-100.00,WSW,239,2.0,8.0,-999,0.00,,,0.00,272.000000,,2013-01-02 19:43:00,
2013-01-02 09:53:00,62.0,-99.9,-100.00,WSW,239,2.0,8.0,-999,0.00,,,0.00,272.000000,,2013-01-02 19:53:00,
2013-01-02 10:23:00,65.0,-99.9,-100.00,WNW,288,6.0,8.0,-999,0.00,,,0.00,534.000000,,2013-01-02 20:23:00,
2013-01-02 10:33:00,65.0,-99.9,-100.00,WNW,288,6.0,8.0,-999,0.00,,,0.00,534.000000,,2013-01-02 20:33:00,
2013-01-02 10:43:00,65.0,-99.9,-100.00,WNW,288,6.0,8.0,-999,0.00,,,0.00,534.000000,,2013-01-02 20:43:00,
2013-01-02 10:53:00,65.0,-99.9,-100.00,WNW,288,6.0,8.0,-999,0.00,,,0.00,534.000000,,2013-01-02 20:53:00,
2013-01-02 11:23:00,70.0,-99.9,-100.00,NW,306,5.0,11.0,-999,0.00,,,0.00,684.000000,,2013-01-02 21:23:00,
2013-01-02 11:33:00,70.0,-99.9,-100.00,NW,306,5.0,11.0,-999,0.00,,,0.00,684.000000,,2013-01-02 21:33:00,
2013-01-02 11:43:00,70.0,-99.9,-100.00,NW,306,5.0,11.0,-999,0.00,,,0.00,684.000000,,2013-01-02 21:43:00,
2013-01-02 11:53:00,70.0,-99.9,-100.00,NW,306,5.0,11.0,-999,0.00,,,0.00,684.000000,,2013-01-02 21:53:00,
2013-01-02 12:22:00,70.0,60.0,-100.00,North,1,7.0,14.0,71,0.00,,,0.00,813.000000,,2013-01-02 22:22:00,
2013-01-02 12:32:00,70.0,60.0,-100.00,North,1,7.0,14.0,71,0.00,,,0.00,813.000000,,2013-01-02 22:32:00,
2013-01-02 12:42:00,70.0,60.0,-100.00,North,1,7.0,14.0,71,0.00,,,0.00,813.000000,,2013-01-02 22:42:00,
2013-01-02 12:52:00,70.0,60.0,-100.00,North,1,7.0,14.0,71,0.00,,,0.00,813.000000,,2013-01-02 22:52:00,
2013-01-02 13:23:00,67.0,-99.9,-100.00,NNW,330,8.0,17.0,-999,0.00,,,0.00,698.000000,,2013-01-02 23:23:00,
2013-01-02 13:33:00,67.0,-99.9,-100.00,NNW,330,8.0,17.0,-999,0.00,,,0.00,698.000000,,2013-01-02 23:33:00,
2013-01-02 13:43:00,67.0,-99.9,-100.00,NNW,330,8.0,17.0,-999,0.00,,,0.00,698.000000,,2013-01-02 23:43:00,
2013-01-02 13:53:00,67.0,-99.9,-100.00,NNW,330,8.0,17.0,-999,0.00,,,0.00,698.000000,,2013-01-02 23:53:00,
2013-01-02 14:23:00,63.0,-99.9,-100.00,North,6,6.0,18.0,-999,0.00,,,0.00,425.000000,,2013-01-03 00:23:00,
2013-01-02 14:38:00,63.0,-99.9,-100.00,North,6,6.0,18.0,-999,0.00,,,0.00,425.000000,,2013-01-03 00:38:00,
2013-01-02 14:53:00,63.0,-99.9,-100.00,North,6,6.0,18.0,-999,0.00,,,0.00,425.000000,,2013-01-03 00:53:00,
2013-01-02 15:23:00,62.0,-99.9,-100.00,NNW,333,8.0,16.0,-999,0.00,,,0.00,382.000000,,2013-01-03 01:23:00,
2013-01-02 15:33:00,62.0,-99.9,-100.00,NNW,333,8.0,16.0,-999,0.00,,,0.00,382.000000,,2013-01-03 01:33:00,
2013-01-02 15:43:00,62.0,-99.9,-100.00,NNW,333,8.0,16.0,-999,0.00,,,0.00,382.000000,,2013-01-03 01:43:00,
2013-01-02 15:53:00,62.0,-99.9,-100.00,NNW,333,8.0,16.0,-999,0.00,,,0.00,382.000000,,2013-01-03 01:53:00,
2013-01-02 16:23:00,60.0,-99.9,-100.00,NNW,341,7.0,14.0,-999,0.00,,,0.00,303.000000,,2013-01-03 02:23:00,
2013-01-02 16:33:00,60.0,-99.9,-100.00,NNW,341,7.0,14.0,-999,0.00,,,0.00,303.000000,,2013-01-03 02:33:00,
2013-01-02 16:43:00,60.0,-99.9,-100.00,NNW,341,7.0,14.0,-999,0.00,,,0.00,303.000000,,2013-01-03 02:43:00,
2013-01-02 16:53:00,60.0,-99.9,-100.00,NNW,341,7.0,14.0,-999,0.00,,,0.00,303.000000,,2013-01-03 02:53:00,
2013-01-02 17:22:00,57.0,-99.9,-100.00,NNW,337,7.0,15.0,-999,0.00,,,0.00,128.000000,,2013-01-03 03:22:00,
2013-01-02 17:47:00,57.0,-99.9,-100.00,NNW,337,7.0,15.0,-999,0.00,,,0.00,128.000000,,2013-01-03 03:47:00,
2013-01-02 17:53:00,57.0,-99.9,-100.00,NNW,337,7.0,15.0,-999,0.00,,,0.00,128.000000,,2013-01-03 03:53:00,
2013-01-02 18:22:00,55.0,-99.9,-100.00,NNW,338,4.0,12.0,-999,0.00,,,0.00,33.000000,,2013-01-03 04:22:00,
2013-01-02 18:33:00,55.0,-99.9,-100.00,NNW,338,4.0,12.0,-999,0.00,,,0.00,33.000000,,2013-01-03 04:33:00,
2013-01-02 18:43:00,55.0,-99.9,-100.00,NNW,338,4.0,12.0,-999,0.00,,,0.00,33.000000,,2013-01-03 04:43:00,
2013-01-02 18:53:00,55.0,-99.9,-100.00,NNW,338,4.0,12.0,-999,0.00,,,0.00,33.000000,,2013-01-03 04:53:00,
2013-01-02 19:23:00,53.0,-99.9,-100.00,SSW,195,1.0,8.0,-999,0.00,,,0.00,0.000000,,2013-01-03 05:23:00,
2013-01-02 19:33:00,53.0,-99.9,-100.00,SSW,195,1.0,8.0,-999,0.00,,,0.00,0.000000,,2013-01-03 05:33:00,
2013-01-02 19:43:00,53.0,-99.9,-100.00,SSW,195,1.0,8.0,-999,0.00,,,0.00,0.000000,,2013-01-03 05:43:00,
2013-01-02 19:53:00,53.0,-99.9,-100.00,SSW,195,1.0,8.0,-999,0.00,,,0.00,0.000000,,2013-01-03 05:53:00,
2013-01-02 20:22:00,50.0,49.0,-100.00,SSW,195,2.0,4.0,97,0.00,,,0.00,0.000000,,2013-01-03 06:22:00,
2013-01-02 20:32:00,50.0,49.0,-100.00,SSW,195,2.0,4.0,97,0.00,,,0.00,0.000000,,2013-01-03 06:32:00,
2013-01-02 20:42:00,50.0,49.0,-100.00,SSW,195,2.0,4.0,97,0.00,,,0.00,0.000000,,2013-01-03 06:42:00,
2013-01-02 20:52:00,50.0,49.0,-100.00,SSW,195,2.0,4.0,97,0.00,,,0.00,0.000000,,2013-01-03 06:52:00,
2013-01-02 21:22:00,50.0,-99.9,-100.00,SE,140,2.0,4.0,-999,0.00,,,-99.99,0.000000,,2013-01-03 07:22:00,
2013-01-02 21:33:00,50.0,-99.9,-100.00,SE,140,2.0,4.0,-999,0.00,,,-99.99,0.000000,,2013-01-03 07:33:00,
2013-01-02 21:43:00,50.0,-99.9,-100.00,SE,140,2.0,4.0,-999,0.00,,,-99.99,0.000000,,2013-01-03 07:43:00,
2013-01-02 21:53:00,50.0,-99.9,-100.00,SE,140,2.0,4.0,-999,0.00,,,-99.99,0.000000,,2013-01-03 07:53:00,
2013-01-02 22:23:00,46.0,-99.9,-100.00,South,171,3.0,3.0,-999,0.00,,,0.00,0.000000,,2013-01-03 08:23:00,
2013-01-02 22:33:00,46.0,-99.9,-100.00,South,171,3.0,3.0,-999,0.00,,,0.00,0.000000,,2013-01-03 08:33:00,
2013-01-02 22:43:00,46.0,-99.9,-100.00,South,171,3.0,3.0,-999,0.00,,,0.00,0.000000,,2013-01-03 08:43:00,
2013-01-02 22:53:00,46.0,-99.9,-100.00,South,171,3.0,3.0,-999,0.00,,,0.00,0.000000,,2013-01-03 08:53:00,
2013-01-02 23:23:00,51.0,-99.9,-100.00,SE,137,2.0,8.0,-999,0.00,,,0.00,0.000000,,2013-01-03 09:23:00,
2013-01-02 23:34:00,51.0,-99.9,-100.00,SE,137,2.0,8.0,-999,0.00,,,0.00,0.000000,,2013-01-03 09:34:00,
2013-01-02 23:43:00,51.0,-99.9,-100.00,SE,137,2.0,8.0,-999,0.00,,,0.00,0.000000,,2013-01-03 09:43:00,
2013-01-02 23:53:00,51.0,-99.9,-100.00,SE,137,2.0,8.0,-999,0.00,,,0.00,0.000000,,2013-01-03 09:53:00,